#timestamp,LO_Frequency,Hit,StdDev 
1645106415.7,286047000.2,N
1645106435.6,286047000.5,N
1645106455.4,286047000.8,N
1645106475.3,286046998.1,N
1645106495.1,286047000.7,N
1645106496.0,286047000.7,N
1645106515.8,286047001.1,N
1645106535.7,286047001.2,N
1645106555.5,286047002.5,N
1645106575.3,286046999.9,N
1645106595.2,286046999.8,N
1645106615.0,286047000.0,N
1645106615.9,286047000.0,N
1645106635.8,286047002.6,N
1645106655.6,286047002.3,N
1645106675.4,286047002.6,N
1645106695.3,286047002.4,N
1645106715.1,286047000.1,N
1645106735.8,286047002.3,N
1645106755.7,286046999.7,N
1645106775.5,286046999.8,N
1645106795.4,286047000.1,N
1645106815.2,286047000.0,N
1645106835.0,286047000.7,N
1645106835.9,286047000.7,N
1645106855.8,286047002.4,N
1645106875.6,286047001.5,N
1645106895.4,286047001.6,N
1645106915.3,286047004.1,Y
1645106935.1,286047002.7,P
1645106955.9,286047000.1,N
1645106975.7,286047000.4,N
1645106995.5,286047002.5,N
1645107015.4,286047002.4,N
1645107035.2,286047002.1,N
1645107055.1,286046999.8,N
1645107056.0,286046999.8,N
1645107075.8,286046999.9,N
1645107095.7,286047000.2,N
1645107115.5,286047000.8,N
1645107135.3,286047000.5,N
1645107155.2,286046998.7,N
1645107175.0,286046998.4,N
1645107175.9,286046998.4,N
1645107195.7,286047000.3,N
1645107215.6,286047001.1,N
1645107235.4,286047000.5,N
1645107255.3,286047000.7,N
1645107275.1,286047000.2,N
1645107295.8,286047000.5,N
1645107315.7,286046999.8,N
1645107335.5,286047000.3,N
1645107355.4,286047002.5,N
1645107375.2,286047002.2,N
1645107395.0,286047002.4,N
1645107395.9,286047002.4,N
1645107415.8,286046999.8,N
1645107435.6,286047002.6,N
1645107455.5,286047002.1,N
1645107475.3,286047001.0,N
1645107495.1,286046998.6,N
1645107515.9,286046999.2,N
1645107535.7,286047001.2,N
1645107555.5,286047000.2,N
1645107575.4,286047000.6,N
1645107595.2,286047001.6,N
1645107615.1,286046999.9,N
1645107616.0,286046999.9,N
1645107635.8,286047001.0,N
1645107655.6,286046999.8,N
1645107675.5,286047001.9,N
1645107695.3,286047002.4,N
1645107715.2,286046999.7,N
1645107735.9,286047000.4,N
1645107755.7,286047000.2,N
1645107775.6,286047001.2,N
1645107795.4,286046999.0,N
1645107815.2,286046999.2,N
1645107835.1,286047000.7,N
1645107836.0,286047000.7,N
1645107855.8,286046998.4,N
1645107875.7,286046998.6,N
1645107895.5,286047001.1,N
1645107915.3,286047002.7,N
1645107935.2,286047000.9,N
1645107955.0,286047001.0,N
1645107955.9,286047001.0,N
1645107975.7,286047000.3,N
1645107995.6,286047000.3,N
1645108015.4,286047000.2,N
1645108035.3,286047000.6,N
1645108055.1,286047000.2,N
1645108056.0,286047000.2,N
1645108075.8,286047000.9,N
1645108095.7,286047000.7,N
1645108115.5,286046998.6,N
1645108135.3,286047000.8,N
1645108155.2,286046998.1,N
1645108175.0,286047000.7,N
1645108175.9,286047000.7,N
1645108195.8,286047001.1,N
1645108215.6,286046998.4,N
1645108235.4,286047001.2,N
1645108255.3,286047001.9,N
1645108275.1,286046999.7,N
1645108295.9,286047002.7,N
1645108315.7,286046999.7,N
1645108335.5,286047002.1,N
1645108355.4,286047003.4,N
1645108375.2,286047005.9,Y
1645108395.1,286047003.5,P
1645108396.0,286047003.5,N
1645108415.8,286047003.3,N
1645108435.6,286047005.9,Y
1645108455.5,286047004.0,P
1645108475.3,286047002.7,P
1645108495.1,286047001.0,N
1645108515.9,286046998.8,N
1645108535.7,286046999.6,N
1645108555.6,286046999.6,N
1645108575.4,286046997.2,N
1645108595.2,286046997.5,N
1645108615.1,286046997.1,N
1645108616.0,286046997.1,N
1645108635.8,286046997.4,N
1645108655.7,286046998.4,N
1645108675.5,286046996.5,N
1645108695.3,286046999.3,N
1645108715.2,286046999.2,N
1645108735.9,286046997.1,N
1645108755.7,286046999.1,N
1645108775.6,286046996.6,N
1645108795.4,286046997.0,N
1645108815.3,286046997.8,N
1645108835.1,286046997.7,N
1645108836.0,286046997.7,N
1645108855.8,286046997.7,N
1645108875.7,286046997.3,N
1645108895.5,286046997.6,N
1645108915.4,286047001.2,N
1645108935.2,286047000.9,N
1645108955.0,286047000.5,N
1645108955.9,286047000.5,N
1645108975.8,286046998.2,N
1645108995.6,286046998.4,N
1645109015.4,286046998.4,N
1645109035.3,286046998.7,N
1645109055.1,286046998.5,N
1645109075.9,286046998.3,N
1645109095.7,286046996.5,N
1645109115.5,286046997.6,N
1645109135.4,286046996.6,N
1645109155.2,286046996.9,N
1645109175.0,286046998.6,N
1645109175.9,286046998.6,N
1645109195.8,286047002.8,N
1645109215.6,286047000.4,N
1645109235.5,286046999.9,N
1645109255.3,286046999.1,N
1645109275.1,286046997.1,N
1645109295.9,286046995.5,N
1645109315.7,286046995.1,Y
1645109335.6,286046999.0,P
1645109355.4,286046996.9,P
1645109375.2,286046998.9,N
1645109395.1,286046999.5,N
1645109396.0,286046999.5,N
1645109415.8,286046996.5,Y
1645109435.7,286046998.6,P
1645109455.5,286047001.2,P
1645109475.3,286046998.4,N
1645109495.2,286047000.1,N
1645109515.9,286047000.9,N
1645109535.7,286047002.4,N
1645109555.6,286047002.5,N
1645109575.4,286047002.7,N
1645109595.2,286047002.1,N
1645109615.1,286047001.8,N
1645109616.0,286047001.8,N
1645109635.8,286047002.2,N
1645109655.7,286047001.8,N
1645109675.5,286047002.5,N
1645109695.3,286047002.1,N
1645109715.2,286047000.2,N
1645109735.0,286047003.6,N
1645109735.9,286047003.6,N
1645109755.8,286047001.7,N
1645109775.6,286047004.3,N
1645109795.4,286047001.3,N
1645109815.3,286047002.4,N
1645109835.1,286047000.7,N
1645109855.8,286046998.2,N
1645109875.7,286047000.2,N
1645109895.5,286047000.1,N
1645109915.4,286047000.3,N
1645109935.2,286047000.8,N
1645109955.0,286047000.1,N
1645109955.9,286047000.1,N
1645109975.8,286046999.9,N
1645109995.6,286046998.2,N
